PEGASUS DEB, 24980

Orbit data source: Space-Track

PEGASUS DEB, 24980 is space debris in LEO originally from a launch on Thu, 19 May 1994 UTC launched from the Air Force Western Test Range (AFWTR). Debris objects in space refer to the collection of defunct objects orbiting the Earth. Examples of debris include non-operational satellites, rocket bodies, and fragments generated from explosions, collisions, or faulty payload assembly.

Loading next visibility...
Identifier
24980, 1994-029ACN
Orbit
LEO
Country
Flag of USUS
Related business
Manufacturer
Unknown
Mission
Spacecraft
Bus & Motor
Unknown
Mass
Unknown
Launch date (UTC)
1994-05-19 (32 years ago)
Launch vehicle
Unknown
Launch site
Air Force Western Test Range (AFWTR)
Object type
Payload
Rocket body
Debris
Shape & HBR
Unknown shape, 0.1 m
Radar Cross Section
Small (<0.1 m²)

Expand to show TLE details & history
Last TLE update: 9 hours ago

TLE from 9 hours ago
0 PEGASUS DEB
1 24980U 94029ACN 26062.63994676  .00026772  00000-0  23046-2 0  9994
2 24980  81.5730 293.0466 0152150 328.0553  31.1502 14.88642890532405
Epoch: 2026-03-03T15:21Z
TLE epoch observation values (Epoch: 2026-03-03T15:21:31.400Z)
Latitude
0.00004°
Longitude
-98.75034°
Altitude
514.723 km
Speed
7.655 km/s
True Right ascension
19h 32m 11s
True Declination
0° 00' 00"
Sunlit
Object was in daylight at epoch
Visualization orbit readout
Latitude
Unknown
Longitude
Unknown
Altitude
Unknown
Speed
Unknown
Apparent Right ascension
Unknown
Apparent Declination
Unknown
Sunlit
N/A
Visualization observer readout
Local Sidereal Time
04:08:04
Azimuth
Unknown
Elevation
Unknown
Doppler factor
Unknown
Orbital elements
Apogee altitude
705.388 km
Perigee altitude
493.067 km
Semi-major axis
6,977.365 km
Eccentricity
0.01522
Inclination
81.573°
RAAN
293.0466°
Arg. of periapsis
328.0553°
True anomaly
32.06696°
Mean anomaly
31.1502°
Eccentric anomaly
31.60708°
Mean motion
3.72397 °/min
Orbital period
96.67 mins
BSTAR
0.0023046
Loading maneuver chart data...
Computing Atmospheric mass density...

Documentation

Showing up to 5 results
|